Wetbulb
45.99 42.59 40.58 43.31 43.81 44.00 42.74 41.45 40.62 43.14 47.09 46.06 44.75 43.99 48.96 50.91 50.38 50.70 51.07 52.60 53.51 54.32 55.19 52.49 51.35 51.41 52.39 52.88 52.72 51.53 50.80 50.41 50.17 48.31 47.42 46.81 47.16 47.64 47.71 48.15 49.87 50.09 50.60 50.19
42.21 40.22 45.54 46.23 44.94 44.44 42.72 40.67 40.84 43.87 45.78 46.85 43.72 42.54 44.65 50.48 50.76 50.79 51.77 52.89 53.24 54.37 55.24 54.39 49.19 49.74 51.23 51.54 51.50 51.73 51.82 50.36 50.95 51.00 48.13 47.96 47.71 47.58 48.46 48.92 49.25 50.58 50.77 50.09
40.75 44.11 46.98 45.75 43.79 43.19 41.86 40.67 40.85 41.84 42.99 43.92 40.59 38.48 43.84 48.35 50.57 52.71 53.10 53.65 53.76 53.80 54.74 54.98 48.15 48.90 49.67 50.21 50.73 52.06 52.10 51.22 51.87 50.90 48.59 47.69 48.01 47.59 46.91 47.13 47.35 49.24 50.61 50.87
42.52 46.30 45.21 43.64 42.90 43.76 38.24 44.54 44.33 42.85 40.53 36.20 39.67 33.89 37.37 45.48 48.58 51.19 52.52 52.58 52.48 52.97 55.01 54.17 47.82 47.18 49.00 49.93 50.98 51.33 51.71 51.46 52.04 51.22 50.38 48.87 48.77 45.91 46.61 47.10 47.47 48.27 50.53 50.49
41.81 42.59 42.51 41.23 43.47 44.92 42.60 45.87 44.22 42.74 38.76 36.17 36.38 34.31 37.16 45.00 45.22 48.20 51.32 52.99 53.51 52.66 54.29 55.04 48.36 48.24 49.05 49.48 50.19 50.48 51.73 51.78 52.79 51.38 50.99 48.97 47.81 47.07 46.72 47.41 47.31 48.27 48.69 49.84
44.12 46.80 45.35 44.71 45.49 46.64 46.93 43.92 41.50 38.84 37.47 32.08 37.11 35.57 34.35 39.26 45.15 47.32 50.81 53.07 54.30 53.93 53.51 55.67 50.40 47.93 48.07 48.53 48.86 50.25 51.48 51.89 51.86 51.83 51.41 49.75 47.04 47.20 46.79 46.55 46.69 47.59 47.90 48.74
40.52 42.31 44.85 46.74 42.83 44.13 43.73 39.76 32.41 31.38 30.70 30.83 37.65 34.76 37.52 41.86 45.90 48.77 50.13 52.25 54.47 54.43 53.44 54.21 53.17 47.60 48.11 48.35 49.37 50.52 51.23 51.43 51.68 52.61 52.11 50.85 49.14 48.57 48.31 47.97 47.54 47.77 48.33 47.28
36.41 33.83 41.89 44.66 43.66 41.09 40.61 40.12 32.53 29.50 27.95 31.47 35.98 32.49 38.02 43.97 45.91 46.24 49.93 52.10 53.25 53.56 53.27 53.02 54.90 49.64 48.69 49.30 50.23 50.79 51.01 51.60 52.45 52.17 52.23 51.56 49.56 49.97 49.97 49.01 49.02 49.20 49.05 48.42
34.48 35.85 42.16 44.13 45.14 44.73 40.51 37.66 41.46 34.50 32.99 30.00 32.74 36.39 42.62 43.01 45.15 46.34 47.04 49.74 51.14 52.55 52.46 53.40 53.84 51.20 48.70 49.61 50.50 50.80 51.45 51.66 52.42 52.14 51.92 50.95 50.10 50.26 49.99 49.44 49.40 49.57 48.85 47.60
39.42 33.81 41.18 42.52 44.55 43.67 43.19 44.34 35.98 33.94 28.52 27.58 30.50 32.14 35.40 40.12 43.27 44.92 47.26 48.32 50.14 51.41 51.85 52.35 52.92 53.84 49.93 50.25 51.22 51.56 51.77 51.73 52.18 51.73 52.41 53.28 50.70 50.53 50.29 49.93 49.44 49.41 48.23 46.93
40.10 36.42 35.70 41.46 39.29 39.19 39.80 37.70 37.68 37.63 33.86 29.81 27.93 31.81 39.71 42.19 44.38 45.76 47.08 48.90 49.23 50.51 51.49 52.30 53.96 54.44 50.87 50.40 51.07 51.27 51.75 51.71 51.68 52.72 52.64 51.81 50.79 50.35 50.23 49.98 50.13 49.58 48.47 46.27
40.34 37.35 32.70 36.26 40.69 43.02 41.81 40.02 39.41 32.23 31.25 31.81 31.57 32.96 41.93 42.33 44.03 45.27 46.01 47.30 47.03 49.62 51.91 53.08 53.94 54.33 51.63 50.54 50.55 51.31 51.73 51.90 52.29 53.27 53.26 50.53 50.17 49.96 49.79 50.04 49.90 50.01 48.15 46.35
40.32 34.54 28.62 32.31 36.74 39.01 38.63 39.89 39.06 37.21 35.25 31.75 30.67 32.86 42.25 42.82 44.20 44.81 44.46 44.00 46.45 47.68 48.55 50.21 52.21 54.43 54.33 51.69 50.86 51.14 51.72 52.04 52.48 52.17 52.18 51.98 49.95 49.77 49.76 49.78 49.83 49.19 46.92 45.88
44.38 35.45 36.65 32.26 32.79 36.79 34.24 37.78 37.71 37.58 30.98 32.20 32.88 35.68 39.42 42.16 42.58 41.79 42.64 43.03 42.94 46.32 48.26 49.07 49.91 51.16 53.97 54.23 52.04 51.47 51.49 52.31 52.52 51.29 52.19 51.36 51.16 50.84 50.49 50.07 49.30 48.24 46.84 45.16
40.50 33.90 34.59 36.99 38.50 38.20 38.25 38.14 37.63 36.47 36.45 34.21 37.27 35.99 40.33 40.73 40.80 42.07 44.56 45.26 45.58 46.77 48.13 48.54 49.97 51.08 51.92 53.09 52.88 51.83 51.62 51.62 52.58 50.77 50.56 50.19 50.97 51.18 51.55 49.44 48.25 46.94 46.72 45.25
38.95 34.06 35.15 33.63 36.80 37.52 36.65 38.28 38.42 37.17 36.61 36.03 36.06 35.84 41.07 43.58 44.36 43.41 43.76 44.71 44.73 45.27 46.30 48.34 49.60 52.14 52.92 53.34 52.77 52.31 51.58 51.27 51.95 51.29 50.76 50.92 50.76 49.88 49.37 48.19 46.85 46.14 45.09 43.12
37.00 35.09 32.74 30.50 35.13 35.70 31.38 35.47 36.88 37.48 38.01 38.28 34.33 38.75 43.38 41.75 42.41 42.26 42.66 43.58 43.86 44.83 45.65 46.07 46.96 49.84 52.72 53.38 53.79 52.68 51.04 50.35 51.07 51.02 50.84 51.15 49.87 48.96 48.18 47.85 45.88 44.26 42.68 40.98
36.68 34.12 31.63 29.26 32.08 22.87 36.46 39.86 39.83 38.95 40.58 39.95 40.63 41.75 42.64 42.46 43.01 43.46 43.46 42.91 43.63 44.52 45.33 45.99 46.20 46.54 49.01 52.63 52.63 51.30 50.76 50.48 50.35 49.57 50.34 49.87 48.71 47.51 46.99 45.27 44.37 42.54 41.18 39.91
39.48 35.23 29.85 29.01 27.60 32.12 35.78 39.31 39.27 38.35 37.70 41.63 40.98 40.96 41.85 42.96 42.79 41.96 43.95 44.46 44.07 44.62 45.88 46.03 46.93 47.40 46.82 51.20 51.43 51.06 49.97 49.94 49.41 49.25 49.10 48.65 47.55 45.40 44.39 43.88 42.80 41.59 39.37 37.62
38.56 39.19 35.51 29.45 27.54 26.26 34.10 39.15 41.02 40.97 32.83 42.01 41.50 40.44 40.60 41.13 36.88 38.07 42.83 43.35 43.95 44.76 45.51 45.96 46.85 47.56 47.89 49.13 50.73 50.49 48.94 49.12 48.88 48.93 48.20 47.78 46.57 44.72 43.87 43.86 41.80 40.01 38.72 36.30
32.17 31.31 32.17 28.82 30.57 32.26 37.57 40.98 42.12 32.97 34.10 40.93 41.41 40.96 40.78 38.69 39.35 41.60 41.42 41.13 43.23 43.86 45.09 46.49 47.01 46.63 46.76 48.90 49.64 48.37 47.59 48.25 48.57 47.64 46.98 46.03 44.98 44.65 45.01 43.00 40.71 38.82 36.74 34.23
32.98 30.94 28.54 29.22 29.13 29.39 40.87 41.46 35.51 37.09 40.83 41.61 41.20 40.72 39.79 40.03 39.75 39.82 39.55 39.35 40.99 42.46 44.30 45.91 45.88 46.57 47.51 48.67 49.20 47.10 46.92 46.18 46.42 45.62 44.83 44.31 43.35 44.13 42.69 40.44 38.57 37.14 35.18 33.02
32.21 35.36 33.71 34.75 33.19 38.49 40.04 40.92 41.48 42.12 41.31 40.61 40.49 40.19 39.62 37.91 37.52 38.13 37.86 38.16 38.57 39.86 41.34 44.10 45.44 46.21 46.48 47.35 48.02 46.78 46.35 45.74 44.76 44.93 42.87 42.41 42.86 41.76 40.66 38.64 37.02 35.86 34.85 32.86
36.60 39.49 36.81 37.18 37.06 34.60 36.07 38.48 41.00 41.64 40.46 40.82 40.97 39.64 38.04 36.55 36.99 36.31 36.06 35.86 36.29 37.21 39.33 41.69 42.53 43.59 44.87 46.47 47.08 46.69 45.56 44.33 43.54 42.27 40.64 39.84 40.05 38.99 39.38 38.61 37.56 35.84 34.92 32.73
35.17 37.41 34.91 33.04 35.31 35.86 35.68 36.19 37.01 37.24 37.94 37.84 37.38 36.51 35.65 35.46 34.53 35.05 34.92 35.33 36.11 37.99 38.77 39.81 40.46 41.27 42.63 43.71 44.90 45.05 45.09 43.82 42.37 41.13 39.71 38.84 37.97 37.41 36.97 37.73 37.22 36.46 36.60 35.46
34.62 35.03 34.64 33.10 38.13 35.89 33.47 34.67 36.73 35.68 35.39 35.95 36.67 36.76 36.52 36.73 36.66 36.66 36.61 37.57 38.43 38.84 39.48 39.72 40.30 40.95 42.38 43.12 43.43 43.81 43.45 43.18 41.59 39.37 38.63 38.12 36.66 35.97 35.63 34.77 31.92 33.14 34.11 34.01
MSLP
1011.20 1011.88 1012.03 1012.48 1012.76 1012.87 1013.30 1013.44 1013.31 1012.56 1012.34 1012.45 1012.82 1013.91 1014.23 1015.08 1015.55 1015.72 1016.01 1015.75 1016.30 1016.61 1016.94 1017.84 1018.42 1019.04 1019.68 1020.06 1021.01 1021.72 1022.34 1022.88 1023.56 1024.34 1024.99 1025.56 1025.97 1026.51 1026.72 1026.51 1026.66 1026.90 1027.23 1027.66
1011.62 1011.38 1011.64 1012.01 1012.49 1012.84 1013.07 1013.31 1013.16 1012.40 1012.14 1012.57 1012.76 1013.76 1014.28 1015.07 1015.12 1015.48 1015.45 1015.56 1015.88 1016.43 1017.02 1017.69 1018.22 1018.72 1019.21 1019.81 1020.58 1021.20 1021.77 1022.46 1023.00 1023.53 1024.08 1024.69 1025.29 1026.19 1026.34 1026.52 1026.81 1026.96 1027.35 1027.70
1011.11 1010.97 1011.25 1011.86 1012.38 1012.68 1012.88 1013.06 1012.88 1012.76 1012.49 1012.62 1013.23 1013.78 1014.44 1014.94 1015.17 1015.22 1015.20 1015.33 1015.66 1016.11 1016.78 1017.42 1017.93 1018.22 1018.74 1019.20 1019.60 1020.17 1020.98 1021.79 1022.49 1023.01 1023.84 1024.68 1025.35 1026.20 1026.59 1026.75 1027.14 1027.21 1027.33 1027.69
1010.88 1010.66 1010.90 1011.46 1011.92 1012.11 1012.49 1012.19 1012.52 1012.80 1013.44 1013.66 1013.60 1014.32 1014.38 1014.82 1015.00 1014.96 1014.70 1014.82 1014.90 1015.56 1016.29 1016.85 1017.28 1017.88 1018.23 1018.86 1019.50 1020.18 1020.92 1021.53 1022.18 1022.57 1023.27 1023.94 1024.64 1025.54 1025.91 1026.26 1026.82 1027.23 1027.40 1027.70
1010.12 1010.28 1010.70 1011.04 1011.10 1011.51 1011.71 1011.79 1012.32 1012.78 1013.57 1014.10 1014.16 1014.69 1014.11 1014.53 1014.62 1014.04 1013.89 1014.18 1014.12 1014.85 1015.65 1016.18 1016.62 1017.18 1017.97 1018.66 1019.11 1019.69 1020.50 1021.24 1021.94 1022.55 1022.96 1023.50 1024.51 1024.90 1025.39 1026.04 1026.74 1027.27 1027.53 1027.78
1009.67 1009.66 1009.77 1009.70 1010.27 1010.75 1011.18 1012.15 1012.99 1013.69 1014.29 1014.91 1014.27 1014.44 1014.00 1013.74 1012.92 1012.75 1012.78 1013.17 1013.20 1014.06 1014.89 1015.56 1016.11 1016.82 1017.62 1018.29 1019.07 1019.58 1020.09 1020.70 1021.30 1021.80 1022.36 1022.88 1023.80 1024.48 1025.18 1025.77 1026.59 1027.16 1027.56 1027.97
1009.92 1009.65 1009.38 1009.37 1010.07 1010.58 1011.15 1012.60 1013.86 1014.94 1015.28 1015.21 1014.30 1014.42 1013.31 1011.94 1011.90 1011.82 1011.87 1012.09 1012.30 1013.19 1014.12 1014.83 1015.60 1016.30 1017.14 1017.85 1018.52 1019.14 1019.64 1020.13 1020.70 1021.26 1021.69 1022.20 1022.96 1023.75 1024.43 1025.13 1025.90 1026.74 1027.32 1027.93
1010.05 1009.86 1009.24 1009.13 1009.56 1010.15 1011.18 1012.08 1013.46 1014.65 1015.47 1015.39 1014.72 1013.86 1012.14 1011.34 1011.24 1011.03 1011.01 1011.28 1012.08 1012.82 1013.34 1013.93 1014.59 1015.30 1016.10 1016.94 1017.85 1018.36 1018.80 1019.40 1019.90 1020.47 1021.16 1021.90 1022.73 1023.37 1023.84 1024.50 1025.32 1025.90 1026.40 1027.07
1009.61 1009.41 1008.78 1008.64 1008.91 1009.72 1010.97 1011.90 1012.41 1014.32 1015.66 1015.45 1014.42 1013.22 1011.70 1011.01 1011.01 1011.00 1011.02 1011.58 1011.82 1012.16 1012.72 1013.12 1013.86 1014.51 1015.30 1016.15 1016.78 1017.24 1017.95 1018.66 1019.22 1019.70 1020.64 1021.40 1022.04 1022.76 1023.37 1024.17 1024.82 1025.36 1025.89 1026.65
1008.80 1009.40 1008.72 1008.50 1008.69 1009.32 1009.78 1011.01 1012.83 1014.38 1015.56 1015.76 1014.74 1013.58 1012.15 1011.34 1011.02 1011.02 1011.24 1011.48 1011.83 1012.08 1012.51 1012.85 1013.16 1013.82 1014.59 1015.31 1016.06 1016.69 1017.20 1017.64 1018.16 1019.10 1019.89 1020.73 1021.39 1022.12 1022.84 1023.56 1024.32 1024.91 1025.70 1026.34
1008.44 1009.00 1009.14 1008.74 1008.67 1009.10 1010.28 1011.04 1012.45 1013.58 1014.59 1015.09 1014.84 1013.18 1011.19 1010.70 1010.56 1010.82 1010.97 1011.14 1011.40 1011.70 1011.89 1012.17 1012.78 1013.43 1014.16 1014.87 1015.36 1015.82 1016.48 1016.93 1017.68 1018.35 1018.90 1019.84 1020.60 1021.48 1022.23 1022.93 1023.57 1024.17 1025.01 1026.02
1007.64 1008.66 1009.37 1008.98 1008.47 1008.37 1009.10 1010.32 1011.52 1013.33 1014.78 1014.79 1014.03 1012.01 1010.46 1010.22 1010.22 1010.33 1010.55 1010.94 1011.34 1011.66 1011.70 1012.08 1012.74 1013.07 1013.63 1014.21 1014.88 1015.37 1015.94 1016.32 1016.64 1017.46 1018.24 1019.02 1019.83 1020.65 1021.47 1022.19 1022.96 1023.66 1024.60 1025.24
1007.08 1007.92 1009.42 1009.56 1009.34 1009.08 1009.38 1010.12 1010.90 1011.88 1012.93 1013.55 1013.58 1011.66 1010.29 1010.12 1010.18 1010.48 1010.88 1011.41 1011.57 1011.54 1011.50 1011.57 1012.24 1012.48 1012.89 1013.54 1014.08 1014.55 1015.09 1015.53 1016.10 1016.75 1017.52 1018.52 1019.20 1019.86 1020.65 1021.47 1022.30 1023.16 1024.10 1024.86
1006.15 1007.16 1007.68 1007.83 1008.13 1008.69 1009.57 1009.88 1010.64 1011.20 1012.59 1012.84 1012.10 1011.40 1010.58 1010.28 1010.42 1010.77 1010.98 1011.25 1011.66 1011.61 1011.42 1011.51 1011.79 1011.86 1012.15 1012.68 1013.19 1013.70 1014.35 1014.95 1015.61 1016.31 1017.09 1017.79 1018.63 1019.41 1020.21 1020.74 1021.50 1022.47 1023.26 1024.19
1006.50 1007.25 1007.76 1007.81 1007.94 1008.21 1008.48 1009.11 1009.98 1010.66 1010.79 1011.33 1011.21 1011.33 1010.44 1010.58 1010.82 1011.32 1011.84 1012.08 1012.12 1012.04 1011.75 1011.65 1011.68 1011.84 1012.09 1012.46 1012.91 1013.35 1013.88 1014.46 1015.05 1015.86 1016.46 1016.99 1017.85 1018.69 1019.61 1020.31 1021.03 1021.85 1022.62 1023.42
1006.76 1007.44 1007.83 1008.35 1008.02 1008.04 1008.47 1008.39 1008.85 1009.45 1009.89 1010.33 1010.39 1011.02 1010.70 1011.33 1011.57 1012.31 1012.78 1012.74 1012.37 1012.46 1012.52 1012.13 1011.80 1011.62 1011.53 1011.69 1012.18 1012.66 1013.26 1013.93 1014.69 1015.50 1016.21 1016.87 1017.63 1018.44 1019.23 1020.02 1020.80 1021.60 1022.40 1023.22
1007.22 1007.75 1008.58 1008.98 1008.54 1008.65 1008.74 1007.55 1008.13 1008.74 1009.08 1009.51 1010.39 1010.26 1010.92 1011.84 1012.22 1012.77 1013.20 1013.30 1013.14 1012.70 1012.55 1012.41 1012.23 1011.75 1011.34 1011.35 1011.68 1012.26 1012.92 1013.62 1014.36 1015.09 1015.76 1016.51 1017.28 1018.14 1018.97 1019.82 1020.56 1021.21 1021.92 1022.84
1007.37 1008.22 1008.92 1009.63 1009.43 1009.16 1006.95 1006.70 1006.96 1007.93 1008.78 1009.30 1009.75 1010.45 1011.04 1011.88 1012.70 1013.17 1013.38 1013.39 1013.24 1012.92 1012.58 1012.36 1011.85 1011.30 1010.95 1010.84 1011.18 1011.74 1012.48 1013.22 1013.91 1014.68 1015.44 1016.22 1016.97 1017.82 1018.64 1019.40 1020.10 1020.91 1021.58 1022.32
1007.22 1008.24 1009.55 1009.98 1009.86 1008.79 1007.65 1007.31 1007.56 1007.59 1009.30 1009.58 1010.12 1011.07 1011.71 1012.45 1013.08 1013.48 1013.50 1013.44 1013.27 1012.92 1012.56 1012.28 1011.86 1011.12 1010.53 1010.49 1010.84 1011.46 1012.27 1012.91 1013.64 1014.35 1014.99 1015.62 1016.25 1017.22 1018.07 1018.77 1019.47 1020.30 1021.24 1022.18
1007.79 1007.99 1009.00 1010.22 1009.90 1008.85 1007.79 1007.00 1006.86 1007.14 1009.10 1009.63 1010.14 1011.18 1011.81 1012.59 1013.59 1014.03 1013.72 1013.52 1013.25 1012.96 1012.60 1012.21 1011.72 1011.20 1010.78 1010.75 1010.92 1011.44 1012.13 1012.65 1013.27 1013.90 1014.48 1015.20 1015.98 1016.73 1017.37 1018.08 1019.03 1019.97 1020.95 1021.98
1008.58 1009.06 1009.58 1010.63 1009.99 1009.15 1007.98 1007.66 1007.64 1008.40 1008.93 1009.30 1010.26 1010.97 1011.80 1012.56 1012.88 1013.44 1013.67 1013.62 1013.41 1013.17 1012.81 1012.44 1012.10 1011.87 1011.72 1011.58 1011.64 1012.12 1012.62 1012.89 1013.19 1013.86 1014.48 1015.16 1015.70 1016.53 1017.23 1018.23 1019.01 1019.85 1020.91 1021.99
1007.96 1009.11 1010.04 1010.24 1010.25 1009.93 1008.73 1008.54 1008.68 1008.82 1009.18 1009.71 1010.63 1011.21 1011.95 1012.50 1013.14 1013.47 1013.70 1013.71 1013.54 1013.29 1012.83 1012.65 1012.65 1012.54 1012.27 1012.18 1012.36 1012.84 1013.18 1013.48 1013.78 1014.31 1014.84 1015.44 1015.89 1016.40 1017.40 1017.86 1019.12 1020.17 1020.84 1021.93
1008.19 1008.30 1009.04 1009.89 1010.02 1009.83 1009.57 1009.22 1009.37 1009.34 1009.80 1010.62 1011.12 1011.87 1012.24 1012.83 1013.39 1013.63 1013.98 1014.08 1014.05 1014.00 1013.79 1013.45 1013.24 1013.15 1012.99 1013.01 1013.14 1013.33 1013.40 1013.67 1014.08 1014.59 1015.34 1015.65 1016.40 1016.68 1016.97 1018.02 1018.79 1019.93 1020.96 1021.62
1007.98 1008.08 1009.10 1009.68 1010.58 1010.51 1010.55 1010.47 1010.06 1010.31 1010.89 1011.44 1011.79 1012.37 1012.82 1013.43 1013.76 1014.16 1014.34 1014.43 1014.38 1014.25 1014.17 1013.97 1013.74 1013.56 1013.46 1013.33 1013.35 1013.44 1013.60 1014.06 1014.42 1014.89 1015.32 1015.93 1016.34 1016.82 1017.34 1018.11 1018.76 1019.48 1020.41 1021.19
1008.44 1008.49 1009.80 1010.98 1011.17 1011.21 1011.48 1011.31 1011.40 1011.64 1012.11 1012.53 1012.91 1013.33 1013.72 1013.88 1014.25 1014.40 1014.63 1014.79 1014.82 1014.80 1014.67 1014.57 1014.46 1014.17 1013.82 1013.48 1013.32 1013.40 1013.58 1013.93 1014.38 1014.77 1015.23 1015.64 1016.20 1016.68 1016.84 1017.59 1017.82 1018.39 1018.92 1019.29
1009.31 1009.31 1009.96 1010.97 1010.91 1011.43 1012.19 1012.35 1012.46 1012.76 1013.21 1013.42 1013.68 1014.31 1014.60 1014.71 1015.06 1015.16 1015.35 1015.44 1015.31 1015.20 1015.12 1014.99 1014.87 1014.58 1014.23 1013.84 1013.47 1013.19 1013.33 1013.66 1014.04 1014.56 1015.02 1015.30 1015.86 1016.34 1016.66 1017.37 1018.13 1018.34 1018.28 1018.64
Wind_Speed
5 4 7 8 6 4 4 2 3 5 6 4 5 4 11 6 5 8 8 11 9 11 6 7 9 11 13 13 11 11 11 9 7 3 4 3 4 3 2 3 6 7 6 7
2 7 8 6 5 5 3 2 6 7 2 4 4 1 4 7 7 6 11 12 10 7 7 8 10 11 13 14 12 12 13 10 8 6 4 4 4 2 2 3 4 6 7 6
7 4 9 7 5 5 4 5 5 6 5 2 3 4 1 3 4 4 8 8 7 9 9 9 11 14 12 15 17 16 14 13 10 9 6 4 5 4 3 2 2 3 6 6
6 7 6 5 5 7 4 8 6 5 5 4 2 5 5 3 8 7 11 11 10 9 6 7 11 11 14 13 11 12 11 12 9 11 10 10 8 5 4 4 4 4 6 6
9 9 9 6 8 8 10 6 7 5 4 3 2 3 7 2 6 14 13 11 13 8 8 10 12 13 11 10 12 11 10 12 10 10 10 9 6 4 4 4 7 5 5 5
9 3 7 12 5 11 4 4 5 4 4 1 5 5 6 5 8 4 9 13 16 10 9 8 9 9 10 8 8 10 13 13 12 13 12 13 10 9 6 6 6 4 4 4
2 4 2 4 6 3 4 6 1 2 1 6 4 2 10 5 7 7 10 13 16 9 9 9 11 11 12 13 13 12 14 14 13 15 14 13 13 12 11 10 8 8 6 4
10 6 10 4 8 7 7 9 7 7 5 5 2 5 8 3 6 9 8 8 8 8 8 9 11 12 14 16 15 16 16 15 15 14 14 11 10 9 8 10 9 8 8 8
8 7 1 5 6 11 5 4 5 8 3 4 4 5 9 2 4 3 3 4 9 10 9 11 8 12 13 15 18 18 17 15 15 14 11 11 11 11 9 10 9 8 7 7
7 3 7 5 5 2 8 8 3 3 6 4 3 4 6 4 5 2 4 8 8 7 7 8 9 11 10 13 14 14 15 17 14 12 12 10 12 11 10 10 11 11 9 10
7 5 3 8 7 10 3 3 5 5 5 7 3 7 9 10 9 9 9 8 9 9 10 8 6 7 9 11 14 15 14 15 13 13 13 12 11 11 11 12 12 12 11 11
8 7 6 8 2 5 8 10 9 7 5 2 5 9 4 9 7 6 8 7 5 8 8 6 5 7 10 12 12 13 13 14 15 14 13 12 12 11 13 12 12 12 12 12
9 6 3 7 6 2 5 5 4 6 4 8 7 7 1 4 7 5 5 3 7 9 9 8 7 9 9 10 11 13 13 14 12 13 13 12 12 14 14 13 13 12 12 13
11 5 19 14 6 8 6 6 5 7 5 6 7 6 5 7 7 1 2 7 6 8 8 7 6 8 8 9 11 12 12 12 11 12 12 13 13 13 11 13 14 13 13 14
8 9 6 10 9 6 8 9 10 8 7 9 9 10 9 5 5 2 4 4 4 5 8 7 7 4 4 6 6 8 9 10 12 12 12 12 12 12 12 13 13 13 14 13
2 4 5 7 5 9 7 12 12 6 4 3 7 5 3 5 7 6 5 6 6 5 5 8 8 8 8 7 7 8 9 10 11 11 11 9 11 12 12 12 12 13 12 12
5 7 4 6 5 7 6 10 10 6 5 9 7 9 8 5 8 6 5 6 7 7 7 7 7 8 8 8 8 9 8 8 11 10 9 11 12 12 12 11 13 13 14 14
6 5 3 5 5 4 8 0 6 8 3 3 6 6 6 9 8 5 3 4 7 7 6 7 7 8 7 6 7 8 10 10 10 9 10 10 11 12 12 13 13 12 12 14
1 6 4 6 4 4 0 3 8 9 6 4 9 8 6 6 4 4 5 5 5 6 7 7 7 10 7 7 8 9 9 9 9 10 11 12 13 13 13 14 14 12 12 11
5 4 6 3 5 9 8 2 1 4 3 8 7 9 8 9 4 3 5 6 7 7 6 7 8 6 3 3 7 9 9 9 10 10 11 11 12 13 14 13 13 11 10 11
3 4 7 2 4 5 4 1 2 8 10 7 7 6 7 6 4 6 1 4 5 5 8 7 6 6 5 4 4 6 6 7 5 7 9 10 10 11 10 10 9 11 11 11
7 7 4 3 5 6 3 1 7 4 4 8 6 5 10 9 7 6 4 4 7 9 9 9 7 6 4 4 5 4 4 4 6 7 7 8 9 9 8 12 10 11 12 12
2 3 6 2 2 3 4 2 1 1 5 4 7 5 8 8 5 5 4 5 5 6 6 5 6 6 4 4 3 0 1 5 6 6 5 6 7 7 11 12 12 10 11 10
3 3 5 4 4 5 6 5 5 5 6 6 6 7 6 7 6 5 3 4 5 6 7 6 7 7 6 3 1 3 6 6 6 6 7 6 8 8 9 7 8 9 9 9
1 5 6 4 2 6 9 7 6 9 8 10 9 6 6 7 5 5 5 6 6 6 6 6 6 6 8 7 4 4 6 7 6 6 7 8 6 8 9 8 10 11 12 14
2 5 5 5 5 4 3 3 4 8 6 7 10 9 8 8 6 5 5 5 5 7 7 8 8 8 8 7 7 5 6 7 7 6 6 7 7 7 7 7 3 3 7 14
Wind_Direction
196 140 193 199 179 167 164 209 236 253 215 201 220 218 232 208 222 204 208 221 195 195 186 139 157 156 162 173 170 168 164 182 157 135 135 136 155 151 174 151 151 149 141 139
93 205 201 188 156 163 182 218 258 282 216 181 317 57 274 199 234 207 220 222 208 176 166 155 162 170 176 171 172 177 181 175 176 167 153 145 143 156 145 135 139 150 137 139
177 224 160 152 157 161 200 187 229 225 8 13 315 353 140 265 300 252 243 246 221 203 178 165 175 185 177 177 180 186 179 174 174 158 125 89 81 71 82 115 108 160 139 145
207 210 150 152 188 159 222 209 232 255 109 224 116 258 278 213 253 254 242 229 229 203 178 169 180 187 188 188 178 175 168 173 168 165 164 166 173 157 181 160 145 148 149 145
223 166 164 172 194 161 231 155 205 221 170 123 264 102 264 65 261 248 242 239 242 208 187 190 188 190 184 177 180 169 162 166 168 174 178 165 172 147 144 126 133 136 138 144
195 183 155 188 170 184 138 109 51 53 97 178 237 143 282 216 216 253 224 226 240 209 198 189 180 168 171 162 159 164 169 176 168 176 180 182 168 161 146 135 146 153 136 128
86 187 214 148 124 154 112 89 323 357 342 212 183 85 234 264 236 233 222 220 230 199 197 183 177 181 171 176 172 170 181 186 179 187 190 187 176 171 169 163 159 154 150 154
189 232 172 194 167 178 183 161 160 196 185 224 148 230 253 243 286 260 238 224 226 211 201 195 187 184 181 180 179 183 189 190 188 188 190 183 175 179 180 167 162 170 169 166
157 229 254 188 149 150 194 161 191 105 15 85 226 285 313 318 332 338 257 191 211 221 203 215 187 183 179 181 186 189 191 193 193 194 175 179 176 179 170 166 167 170 153 151
197 147 198 199 115 93 156 160 107 3 140 208 281 271 222 262 250 251 200 220 234 241 227 213 202 188 182 183 184 191 191 194 190 177 177 185 180 177 165 158 167 167 159 154
139 117 272 116 191 162 131 152 60 117 133 173 178 254 215 209 196 198 220 223 224 227 231 218 201 174 176 180 185 193 191 189 187 182 179 182 174 171 164 168 174 170 159 158
186 146 209 199 258 182 164 174 157 149 214 204 168 253 217 224 213 201 208 229 259 245 254 269 188 176 179 188 186 192 194 196 194 184 183 179 170 165 168 173 170 164 163 163
167 202 111 333 349 326 177 181 139 114 96 188 173 254 282 200 182 196 239 240 253 265 253 236 198 204 193 186 190 194 196 198 191 182 180 182 176 174 177 168 161 166 160 164
161 146 198 212 207 150 184 169 172 145 142 173 219 222 240 211 199 187 295 335 315 268 249 244 245 221 202 188 191 195 197 192 184 181 186 182 185 182 178 166 167 167 165 161
153 197 172 207 179 169 173 175 175 188 178 167 209 197 227 171 161 58 1 336 27 325 289 263 271 286 249 201 181 187 184 183 181 180 184 185 174 170 170 169 169 166 169 170
145 214 138 185 198 182 192 205 187 190 126 103 131 233 145 110 104 67 10 353 17 0 347 307 279 262 249 209 186 179 174 177 176 182 187 167 162 164 170 167 163 162 162 161
147 137 119 213 153 120 273 189 181 171 168 153 162 208 161 100 87 64 10 355 334 328 312 300 279 261 244 214 187 186 158 152 175 180 167 164 162 167 168 165 161 164 165 157
140 111 99 145 111 174 250 315 159 138 118 146 97 114 133 136 128 111 25 352 324 319 304 308 298 288 256 208 172 144 152 161 169 164 158 158 161 161 162 163 168 165 162 164
205 124 101 138 183 270 328 182 149 160 210 199 137 129 120 128 110 31 11 349 306 312 308 299 294 288 270 194 157 145 150 155 157 165 165 168 164 161 164 171 170 164 159 157
72 59 122 142 147 202 223 171 21 115 242 198 149 143 147 138 135 236 320 332 333 333 323 326 329 317 298 152 144 147 157 162 179 175 172 165 165 169 175 173 167 162 157 153
92 35 144 162 182 285 260 300 334 136 229 145 148 139 139 125 158 156 39 4 340 333 337 343 9 18 13 47 105 126 147 193 152 140 150 160 165 173 168 155 156 154 151 145
156 141 169 100 109 252 23 339 165 214 46 122 123 114 106 116 121 120 85 34 16 9 1 5 14 11 27 78 107 138 180 121 119 133 149 162 158 156 156 149 148 151 148 147
168 190 158 149 190 339 329 124 67 64 110 126 115 122 121 120 116 113 81 40 21 9 4 357 9 4 22 19 13 260 241 140 136 142 151 142 155 152 154 153 153 150 159 157
112 79 83 80 6 16 2 20 61 91 89 97 106 116 108 118 112 97 75 34 23 11 9 354 7 2 342 334 261 205 169 157 151 157 149 152 160 154 157 156 162 158 167 165
58 91 116 63 89 77 27 36 59 72 82 88 65 73 86 88 45 45 34 27 23 18 13 16 8 349 335 341 300 219 184 164 172 165 163 166 163 175 162 179 176 179 186 180
357 137 131 190 208 119 150 113 100 86 82 87 98 67 54 76 72 63 61 29 17 14 10 12 5 360 345 337 325 284 193 180 171 176 180 177 172 176 170 170 155 352 188 187